{"data":{"norad_id":62175,"epoch":"2026-09-21T22:00:03.000096Z","epoch_age_seconds":55188,"freshness":"FRESH","line1":"1 62175U 24225N   26264.91670139  .00006129  00000+0  45382-3 0  9994","line2":"2 62175  69.9997  29.8326 0003601 259.5335 135.2146 15.03624269  5728","mean_motion":15.03624269,"eccentricity":0.0003601,"inclination_deg":69.9997,"raan_deg":29.8326,"arg_perigee_deg":259.5335,"mean_anomaly_deg":135.2146,"bstar":0.00045382,"rev_number":572,"period_min":95.768605873706,"perigee_km":553.23497194117,"apogee_km":558.22874429279,"semimajor_km":6933.868858117,"source":"CELESTRAK","updated_at":"2026-09-22T09:00:49.536605Z"}}